Regional Weather Roundup
Issued by NWS Spokane, WA

Home | Current Version | Previous Version | Text Only | Print | Product List | Glossary On
Versions: 1 2 3 4 5 6 7 8 9 10 11 12 13 14 15 16 17 18 19 20 21 22 23 24 25 26 27 28 29 30 31 32 33 34 35 36 37 38 39 40 41 42 43 44 45 46 47 48 49 50
000
NZUS01 KOTX 261900
RWROTX
EASTERN WASHINGTON/NORTHERN IDAHO ROUNDUP
NATIONAL WEATHER SERVICE, SPOKANE WA
1100 AM PST MON JAN 26 2015

Note: "fair" indicated few or no clouds below 12,000 feet with no
significant weather and/or obstructions to visibility.

...NORTHEAST WASHINGTON AND NORTHERN IDAHO PANHANDLE...

CITY           SKY/WX    TMP DP  RH WIND       PRES   REMARKS
SPOKANE INTL   FOG       37  37 100 E5        30.08R VSB 1/8
SPOKANE DOWNTO CLOUDY    40  37  89 CALM      30.09S
COEUR D ALENE  CLOUDY    39  37  93 NE10      30.07S VSB 1/2
DEER PARK      MOSUNNY   38  37  97 CALM      30.09S

...SOUTHEAST WASHINGTON AND SOUTHERN IDAHO PANHANDLE...

CITY           SKY/WX    TMP DP  RH WIND       PRES   REMARKS
WALLA WALLA    FOG       35  34  96 CALM      30.09S VSB 3/4
PULLMAN/MOSCOW SUNNY     54  39  57 SE17      30.10S
LOWELL           N/A     42  35  76 N6        30.19F

...COLUMBIA BASIN...

CITY           SKY/WX    TMP DP  RH WIND       PRES   REMARKS
EPHRATA        SUNNY     45  37  73 N6        30.07F
MOSES LAKE     FOG       35  34  96 SE5       30.09S VSB 1
TRI CITIES     CLOUDY    39  39 100 CALM      30.14R FOG
HERMISTON      CLOUDY    38  36  92 NE5       30.11S FOG
PENDLETON      FOG       35  34  96 CALM      30.07S VSB<1/4

...EAST SLOPES CASCADES...

CITY           SKY/WX    TMP DP  RH WIND       PRES   REMARKS
THE DALLES     CLOUDY    43  38  82 E3        30.13R
YAKIMA         FOG       36  34  92 CALM      30.10F VSB 1/4
ELLENSBURG     FOG       34  32  92 E3        30.07S VSB<1/4
WENATCHEE      CLOUDY    34  32  92 W6        30.09F FOG     WCI  29
OMAK           FOG       33  32  96 S3        30.10F VSB 1/4

...SOUTHERN BRITISH COLUMBIA...

CITY           SKY/WX    TMP DP  RH WIND       PRES   REMARKS
CASTLEGAR      PTSUNNY   36  36 100 CALM      30.10F FOG

...WESTERN MONTANA...

CITY           SKY/WX    TMP DP  RH WIND       PRES   REMARKS
MISSOULA       SUNNY     34  30  85 CALM      30.16F

...NEIGHBORING CITIES...

CITY           SKY/WX    TMP DP  RH WIND       PRES   REMARKS
SEATTLE        MOSUNNY   50  46  86 CALM      29.97R



USA.gov is the U.S. government's official web portal to all federal, state and local government web resources and services.